Satellite-Ground Cal/Val Site Overpasses Predictions

Prediction of Satellite NPP Overpassing Cal/Val Site: Antarctic Dome C

Ground Cal/Val Site Location: Latitude: -75.10, Longitude: 123.35; Satellite-Ground Site NADIR distance within 100 km.

Table of predicted overpasses for the next 14.0 days since TLE Epoch: 9/24/2022
Interval Starting Time Ending Time Minimum Distance Time Minimum Distance (km)
1 09/24/2022 14:55:57 09/24/2022 14:56:25 09/24/2022 14:56:11 25.05
2 09/25/2022 14:37:14 09/25/2022 14:37:31 09/25/2022 14:37:22 82.13
3 09/26/2022 07:38:48 09/26/2022 07:39:15 09/26/2022 07:39:02 37.82
4 09/27/2022 07:20:02 09/27/2022 07:20:22 09/27/2022 07:20:12 72.16
5 09/29/2022 15:02:17 09/29/2022 15:02:40 09/29/2022 15:02:29 62.17
6 09/30/2022 14:43:27 09/30/2022 14:43:53 09/30/2022 14:43:40 47.12
7 10/01/2022 07:45:08 10/01/2022 07:45:28 10/01/2022 07:45:18 72.90
8 10/02/2022 07:26:16 10/02/2022 07:26:43 10/02/2022 07:26:29 34.95
9 10/04/2022 15:08:47 10/04/2022 15:08:47 10/04/2022 15:08:47 99.95
10 10/05/2022 14:49:42 10/05/2022 14:50:11 10/05/2022 14:49:56 11.58
